Date String (YYYY-MM-DD hh:mm:ss) UTC,Instrument flags,absolute air pressure of the measurement (hPa),sample flow rate (lpm),inlet stack bypass flow (lpm),air temperature of the measurement (°C),ambient temperature measured by the external sensor (°C),aerosol sample conditioner tube jacket temperature (°C),OPC LED temperature (°C),internal box temperature (°C),relative humidity of the measurement (%),span deviation,mass concentration of particles derived from Lorenz-Mie calculation of OPC scattering (μg/m³),mass concentration of particles derived from Lorenz-Mie calculation of OPC scattering (μg/m³),mass concentration of particles derived from Lorenz-Mie calculation of OPC scattering (μg/m³)
DateTimeUTC,F1_M11,P_M11,Q1_M11,Q2_M11,T1_M11,T2_M11,T3_M11,T4_M11,T5_M11,U1_M11,ZSPAN_M11,X0_M11,X2_M11,X1_M11
2023-11-09 03:00:00,SystemResetWarning,0835.1,4.99,000.00,022.0,020.8,000.0,030.5,023.4,22.1,0000.0,0006.88,0003.71,0003.31
2023-11-09 03:01:00,SystemResetWarning,0834.9,5.00,000.00,021.9,020.8,000.0,030.4,023.3,22.2,0000.0,0006.78,0003.69,0003.29
2023-11-09 03:02:00,SystemResetWarning,0835.0,5.00,000.00,021.9,020.8,000.0,030.4,023.3,22.3,0000.0,0006.74,0003.67,0003.28
2023-11-09 03:03:00,SystemResetWarning,0835.0,5.00,000.00,021.9,020.8,000.0,030.4,023.3,22.3,0000.0,0006.58,0003.63,0003.26
2023-11-09 03:04:00,SystemResetWarning,0834.9,5.00,000.00,021.9,020.8,000.0,030.4,023.2,22.3,0000.0,0005.77,0003.58,0003.23
2023-11-09 03:05:00,SystemResetWarning,0834.8,5.00,000.00,021.9,020.7,000.0,030.4,023.2,22.4,0000.0,0005.25,0003.54,0003.19
2023-11-09 03:06:00,SystemResetWarning,0835.0,5.00,000.00,021.8,020.7,000.0,030.4,023.2,22.4,0000.0,0005.09,0003.50,0003.16
2023-11-09 03:07:00,SystemResetWarning,0834.9,5.00,000.00,021.8,020.7,000.0,030.4,023.2,22.5,0000.0,0005.02,0003.48,0003.14
2023-11-09 03:08:00,SystemResetWarning,0834.9,5.00,000.00,021.8,020.7,000.0,030.3,023.2,22.5,0000.0,0005.06,0003.44,0003.12
2023-11-09 03:09:00,SystemResetWarning,0834.9,5.00,000.00,021.8,020.6,000.0,030.3,023.2,22.5,0000.0,0005.25,0003.46,0003.10
2023-11-09 03:10:00,SystemResetWarning,0834.9,5.00,000.00,021.8,020.7,000.0,030.3,023.1,22.6,0000.0,0005.22,0003.44,0003.08
2023-11-09 03:11:00,SystemResetWarning,0834.9,5.00,000.00,021.8,020.6,000.0,030.3,023.1,22.6,0000.0,0005.20,0003.42,0003.03
2023-11-09 03:12:00,SystemResetWarning,0834.9,5.00,000.00,021.7,020.6,000.0,030.3,023.0,22.6,0000.0,0005.14,0003.40,0003.00
2023-11-09 03:13:00,SystemResetWarning,0834.9,5.00,000.00,021.7,020.6,000.0,030.3,023.0,22.6,0000.0,0005.23,0003.41,0002.98
2023-11-09 03:14:00,SystemResetWarning,0835.0,5.00,000.00,021.7,020.6,000.0,030.3,023.0,22.5,0000.0,0005.10,0003.37,0002.94
2023-11-09 03:15:00,SystemResetWarning,0835.0,5.00,000.00,021.7,020.5,000.0,030.2,023.0,22.5,0000.0,0005.78,0003.36,0002.91
2023-11-09 03:16:00,SystemResetWarning,0835.0,5.00,000.00,021.7,020.5,000.0,030.2,022.9,22.4,0000.0,0006.19,0003.33,0002.88
2023-11-09 03:17:00,SystemResetWarning,0835.0,5.00,000.00,021.6,020.5,000.0,030.2,022.9,22.4,0000.0,0006.16,0003.31,0002.85
2023-11-09 03:18:00,SystemResetWarning,0835.0,5.00,000.00,021.6,020.5,000.0,030.2,022.8,22.4,0000.0,0006.12,0003.29,0002.81
2023-11-09 03:19:00,SystemResetWarning,0835.0,5.00,000.00,021.6,020.5,000.0,030.2,022.8,22.4,0000.0,0005.95,0003.25,0002.77
2023-11-09 03:20:00,SystemResetWarning,0835.0,5.00,000.00,021.6,020.5,000.0,030.1,022.8,22.5,0000.0,0005.70,0003.21,0002.74
2023-11-09 03:21:00,SystemResetWarning,0835.0,5.00,000.00,021.5,020.4,000.0,030.1,022.8,22.5,0000.0,0005.73,0003.20,0002.71
2023-11-09 03:22:00,SystemResetWarning,0835.0,4.99,000.00,021.5,020.4,000.0,030.1,022.8,22.5,0000.0,0005.55,0003.17,0002.68
2023-11-09 03:23:00,SystemResetWarning,0835.1,5.00,000.00,021.5,020.4,000.0,030.1,022.7,22.5,0000.0,0005.58,0003.16,0002.66
2023-11-09 03:24:00,SystemResetWarning,0835.1,5.00,000.00,021.5,020.4,000.0,030.0,022.6,22.6,0000.0,0005.60,0003.15,0002.65
2023-11-09 03:25:00,SystemResetWarning,0835.2,5.01,000.00,021.5,020.4,000.0,030.0,022.6,22.7,0000.0,0005.70,0003.17,0002.64
2023-11-09 03:26:00,SystemResetWarning,0835.1,5.01,000.00,021.4,020.4,000.0,030.0,022.6,22.8,0000.0,0005.23,0003.16,0002.64
2023-11-09 03:27:00,SystemResetWarning,0835.1,5.00,000.00,021.4,020.3,000.0,030.0,022.6,22.9,0000.0,0004.64,0003.17,0002.66
2023-11-09 03:28:00,SystemResetWarning,0835.1,5.00,000.00,021.4,020.3,000.0,030.0,022.6,23.0,0000.0,0004.77,0003.21,0002.70
2023-11-09 03:29:00,SystemResetWarning,0835.1,5.00,000.00,021.4,020.3,000.0,029.9,022.6,23.0,0000.0,0004.80,0003.22,0002.74
2023-11-09 03:30:00,SystemResetWarning,0835.1,4.99,000.00,021.3,020.3,000.0,029.9,022.5,23.1,0000.0,0004.93,0003.25,0002.78
2023-11-09 03:31:00,SystemResetWarning,0835.1,4.99,000.00,021.3,020.2,000.0,029.9,022.5,23.1,0000.0,0005.05,0003.29,0002.84
2023-11-09 03:32:00,SystemResetWarning,0835.2,5.00,000.00,021.3,020.2,000.0,029.9,022.5,23.2,0000.0,0004.96,0003.30,0002.86
2023-11-09 03:33:00,SystemResetWarning,0835.1,5.00,000.00,021.3,020.2,000.0,029.9,022.5,23.2,0000.0,0005.01,0003.33,0002.89
2023-11-09 03:34:00,SystemResetWarning,0835.1,5.00,000.00,021.3,020.2,000.0,029.8,022.4,23.3,0000.0,0004.92,0003.33,0002.95
2023-11-09 03:35:00,SystemResetWarning,0835.1,5.00,000.00,021.2,020.2,000.0,029.8,022.3,23.3,0000.0,0004.77,0003.32,0002.97
2023-11-09 03:36:00,SystemResetWarning,0835.1,5.00,000.00,021.2,020.2,000.0,029.8,022.4,23.3,0000.0,0004.98,0003.34,0002.99
2023-11-09 03:37:00,SystemResetWarning,0835.1,5.01,000.00,021.2,020.1,000.0,029.8,022.4,23.3,0000.0,0004.83,0003.33,0002.99
2023-11-09 03:38:00,SystemResetWarning,0835.1,5.01,000.00,021.2,020.1,000.0,029.8,022.3,23.3,0000.0,0004.79,0003.33,0003.00
2023-11-09 03:39:00,SystemResetWarning,0835.1,5.01,000.00,021.1,020.1,000.0,029.7,022.2,23.4,0000.0,0004.79,0003.33,0003.00
2023-11-09 03:40:00,SystemResetWarning,0835.2,5.01,000.00,021.1,020.1,000.0,029.7,022.3,23.4,0000.0,0004.71,0003.32,0003.00
2023-11-09 03:41:00,SystemResetWarning,0835.1,5.00,000.00,021.1,020.1,000.0,029.7,022.2,23.5,0000.0,0005.06,0003.34,0002.98
2023-11-09 03:42:00,SystemResetWarning,0835.1,5.00,000.00,021.1,020.1,000.0,029.7,022.2,23.5,0000.0,0005.01,0003.31,0002.96
2023-11-09 03:43:00,SystemResetWarning,0835.2,4.99,000.00,021.1,020.1,000.0,029.6,022.1,23.6,0000.0,0005.57,0003.30,0002.96
2023-11-09 03:44:00,SystemResetWarning,0835.2,4.99,000.00,021.0,020.0,000.0,029.6,022.1,23.6,0000.0,0005.95,0003.31,0002.98
2023-11-09 03:45:00,SystemResetWarning,0835.2,5.01,000.00,021.0,020.0,000.0,029.6,022.2,23.7,0000.0,0006.48,0003.33,0002.97
2023-11-09 03:46:00,SystemResetWarning,0835.2,5.00,000.00,021.0,020.0,000.0,029.6,022.2,23.7,0000.0,0007.13,0003.39,0002.96
2023-11-09 03:47:00,SystemResetWarning,0835.2,5.00,000.00,021.0,020.0,000.0,029.6,022.1,23.7,0000.0,0006.90,0003.38,0002.97
2023-11-09 03:48:00,SystemResetWarning,0835.2,5.00,000.00,021.0,019.9,000.0,029.5,022.1,23.8,0000.0,0007.17,0003.42,0002.99
2023-11-09 03:49:00,SystemResetWarning,0835.2,5.00,000.00,021.0,019.9,000.0,029.5,022.1,23.7,0000.0,0007.30,0003.43,0003.01
2023-11-09 03:50:00,SystemResetWarning,0835.3,5.01,000.00,020.9,019.9,000.0,029.5,022.2,23.8,0000.0,0007.28,0003.42,0003.01
2023-11-09 03:51:00,SystemResetWarning,0835.3,5.00,000.00,020.9,019.9,000.0,029.5,022.2,23.8,0000.0,0007.34,0003.43,0003.02
2023-11-09 03:52:00,SystemResetWarning,0835.3,5.00,000.00,020.9,019.9,000.0,029.5,022.1,23.8,0000.0,0007.10,0003.42,0003.02
2023-11-09 03:53:00,SystemResetWarning,0835.3,4.99,000.00,020.9,019.9,000.0,029.4,022.1,23.8,0000.0,0007.10,0003.44,0003.03
2023-11-09 03:54:00,SystemResetWarning,0835.3,5.00,000.00,020.9,019.9,000.0,029.4,022.1,23.7,0000.0,0006.69,0003.42,0003.02
2023-11-09 03:55:00,SystemResetWarning,0835.3,5.00,000.00,020.9,019.8,000.0,029.4,022.2,23.7,0000.0,0006.24,0003.43,0003.02
2023-11-09 03:56:00,SystemResetWarning,0835.3,5.00,000.00,020.9,019.8,000.0,029.4,022.2,23.7,0000.0,0006.02,0003.43,0003.02
2023-11-09 03:57:00,SystemResetWarning,0835.3,5.00,000.00,020.8,019.8,000.0,029.4,022.1,23.7,0000.0,0005.23,0003.37,0003.01
2023-11-09 03:58:00,SystemResetWarning,0835.3,5.00,000.00,020.8,019.7,000.0,029.4,022.1,23.7,0000.0,0005.32,0003.39,0003.01
2023-11-09 03:59:00,SystemResetWarning,0835.3,5.00,000.00,020.8,019.7,000.0,029.3,022.0,23.7,0000.0,0005.19,0003.37,0003.00
